Regional Weather Roundup
Issued by NWS

Home | Current Version | Previous Version | Graphics & Text | Print | Product List | Glossary On
Versions: 1 2 3 4 5 6 7 8 9 10 11 12 13 14 15 16 17 18 19 20 21 22 23 24 25 26 27 28 29 30 31 32 33 34 35 36 37 38 39 40 41 42 43 44 45 46 47 48 49 50
885
ASUS43 KLMK 260202
RWRKY
KENTUCKY REGIONAL WEATHER ROUNDUP
NATIONAL WEATHER SERVICE LOUISVILLE KY
1000 PM EDT THU AUG 25 2016

NOTE "FAIR" INDICATES FEW OR NO CLOUDS BELOW 12,000 FEET
WITH NO SIGNIFICANT WEATHER AND/OR OBSTRUCTIONS TO VISIBILITY.

KYZ001>023-026-027-061>063-070>075-260300-
WESTERN AND SOUTH CENTRAL KENTUCKY

CITY           SKY/WX    TMP DP  RH WIND       PRES   REMARKS
PADUCAH        CLOUDY    78  74  87 S3        30.05R
HENDERSON      MOCLDY    75  70  83 CALM      30.06R
OWENSBORO      CLEAR     80  75  84 CALM      30.07R
HOPKINSVILLE   CLEAR     82  76  82 CALM      30.08R
BOWLING GREEN  PTCLDY    82  75  79 CALM      30.09R
GLASGOW        CLEAR     77  77 100 CALM      30.10R
$$

KYZ024-025-028>034-038-045-046-053-260300-
NORTH CENTRAL KENTUCKY

CITY           SKY/WX    TMP DP  RH WIND       PRES   REMARKS
LOUISVILLE/SDF MOCLDY    84  70  62 SW5       30.07R
LOUISVILLE/LOU PTCLDY    83  70  64 SW3       30.08R
FORT KNOX      PTCLDY    79  72  78 S1        30.08R
$$

KYZ035>037-039>044-047>052-055>060-089>105-260300-
NORTHEAST KENTUCKY

CITY           SKY/WX    TMP DP  RH WIND       PRES   REMARKS
LEXINGTON      CLEAR     80  73  79 CALM      30.11R
COVINGTON      CLEAR     77  73  87 S3        30.08R
FRANKFORT      PTCLDY    78  70  76 SW3       30.08R
$$

KYZ054-064>069-076>088-106>120-260300-
SOUTHEAST KENTUCKY

CITY           SKY/WX    TMP DP  RH WIND       PRES   REMARKS
JACKSON        CLEAR     78  73  84 CALM      30.13R
LONDON         CLEAR     76  72  87 CALM      30.13R
SOMERSET       CLEAR     75  73  94 CALM      30.12S
MIDDLESBORO    CLEAR     75  74  96 CALM      30.15R
MONTICELLO     PTCLDY   N/A N/A N/A NE9       30.13R
$$





USA.gov is the U.S. government's official web portal to all federal, state and local government web resources and services.